timestamp,wind_dir_avg,wind_spd_avg,wind_spd_max_dir,wind_spd_gust,battery_voltage,lat,long
2022-10-03 00:04:00+00:00,323.0,4.13,321.0,5.07,12.57,47.59359,-54.27349
2022-10-03 00:14:00+00:00,340.0,4.88,341.0,5.4,12.49,47.59359,-54.27349
2022-10-03 00:24:00+00:00,330.0,4.81,328.0,6.04,12.49,47.59359,-54.27349
2022-10-03 00:34:00+00:00,335.0,4.64,326.0,5.35,12.49,47.59359,-54.27349
2022-10-03 00:44:00+00:00,334.0,4.5,336.0,5.22,12.49,47.59359,-54.27349
2022-10-03 00:54:00+00:00,337.0,4.34,336.0,5.05,12.49,47.59359,-54.27349
2022-10-03 01:04:00+00:00,338.0,4.91,338.0,5.75,12.49,47.59359,-54.27349
2022-10-03 01:14:01+00:00,340.0,4.67,334.0,7.07,12.49,47.59359,-54.27349
2022-10-03 01:24:01+00:00,352.0,5.79,352.0,6.78,12.49,47.59359,-54.27349
2022-10-03 01:34:01+00:00,323.0,5.65,320.0,6.57,12.49,47.59359,-54.27349
2022-10-03 01:44:01+00:00,333.0,5.33,331.0,6.07,12.49,47.59359,-54.27349
2022-10-03 01:54:01+00:00,336.0,5.24,330.0,6.17,12.49,47.59359,-54.27349
2022-10-03 02:04:01+00:00,347.0,7.19,346.0,7.72,12.49,47.59359,-54.27349
2022-10-03 02:14:00+00:00,324.0,6.67,324.0,8.27,12.49,47.59359,-54.27349
2022-10-03 02:24:00+00:00,345.0,6.35,348.0,7.22,12.49,47.59359,-54.27349
2022-10-03 02:34:00+00:00,346.0,6.83,346.0,7.67,12.49,47.59359,-54.27349
2022-10-03 02:44:00+00:00,347.0,7.95,347.0,9.12,12.49,47.59359,-54.27349
2022-10-03 02:54:00+00:00,344.0,7.0,341.0,7.69,12.49,47.59359,-54.27349
2022-10-03 03:04:00+00:00,345.0,7.04,344.0,8.3,12.49,47.59359,-54.27349
2022-10-03 03:14:01+00:00,346.0,7.69,350.0,8.78,12.41,47.59359,-54.27349
2022-10-03 03:24:01+00:00,350.0,7.6,353.0,9.02,12.41,47.59359,-54.27349
2022-10-03 03:34:01+00:00,331.0,6.68,329.0,7.61,12.41,47.59359,-54.27349
2022-10-03 03:44:01+00:00,332.0,6.73,333.0,8.61,12.41,47.59359,-54.27349
2022-10-03 03:54:01+00:00,332.0,5.65,338.0,6.44,12.41,47.59359,-54.27349
2022-10-03 04:04:01+00:00,336.0,6.15,339.0,7.38,12.41,47.59359,-54.27349
2022-10-03 04:14:00+00:00,328.0,6.14,323.0,7.16,12.41,47.59359,-54.27349
2022-10-03 04:24:00+00:00,351.0,7.99,356.0,9.05,12.41,47.59359,-54.27349
2022-10-03 04:34:00+00:00,345.0,7.42,349.0,8.29,12.41,47.59359,-54.27349
2022-10-03 04:44:00+00:00,336.0,6.17,337.0,6.82,12.41,47.59359,-54.27349
2022-10-03 04:54:00+00:00,335.0,5.37,343.0,6.36,12.41,47.59359,-54.27349
2022-10-03 05:04:00+00:00,336.0,5.97,342.0,7.08,12.41,47.59359,-54.27349
2022-10-03 05:14:00+00:00,334.0,5.44,333.0,6.22,12.41,47.59359,-54.27349
2022-10-03 05:24:00+00:00,353.0,5.63,350.0,6.24,12.41,47.59359,-54.27349
2022-10-03 05:34:00+00:00,350.0,7.49,356.0,8.78,12.41,47.59359,-54.27349
2022-10-03 05:44:00+00:00,351.0,7.46,352.0,8.24,12.41,47.59359,-54.27349
2022-10-03 05:54:00+00:00,332.0,5.78,322.0,7.33,12.41,47.59359,-54.27349
2022-10-03 06:04:00+00:00,331.0,5.84,330.0,7.18,12.41,47.59359,-54.27349
2022-10-03 06:14:00+00:00,333.0,5.5,330.0,6.62,12.41,47.59359,-54.27349
2022-10-03 06:24:00+00:00,348.0,6.23,349.0,7.67,12.41,47.59359,-54.27349
2022-10-03 06:34:00+00:00,343.0,6.12,332.0,6.86,12.41,47.59359,-54.27349
2022-10-03 06:44:00+00:00,342.0,6.28,338.0,7.68,12.41,47.59359,-54.27349
2022-10-03 06:54:00+00:00,345.0,6.2,348.0,7.57,12.41,47.59359,-54.27349
2022-10-03 07:04:00+00:00,352.0,7.05,355.0,7.96,12.41,47.59359,-54.27349
2022-10-03 07:14:01+00:00,344.0,6.86,345.0,8.87,12.41,47.59359,-54.27349
2022-10-03 07:24:01+00:00,347.0,5.4,346.0,6.38,12.41,47.59359,-54.27349
2022-10-03 07:34:01+00:00,4.0,4.27,4.0,5.74,12.41,47.59359,-54.27349
2022-10-03 07:44:01+00:00,341.0,4.09,342.0,4.79,12.41,47.59359,-54.27349
2022-10-03 07:54:01+00:00,333.0,5.78,330.0,6.66,12.41,47.59359,-54.27349
2022-10-03 08:04:01+00:00,338.0,5.22,346.0,6.8,12.41,47.59359,-54.27349
2022-10-03 08:14:00+00:00,340.0,5.6,343.0,6.77,12.33,47.59359,-54.27349
2022-10-03 08:24:00+00:00,335.0,5.35,333.0,5.96,12.33,47.59359,-54.27349
2022-10-03 08:34:00+00:00,341.0,3.95,343.0,4.77,12.33,47.59359,-54.27349
2022-10-03 08:44:00+00:00,329.0,2.95,334.0,3.63,12.33,47.59359,-54.27349
2022-10-03 08:54:00+00:00,331.0,2.29,327.0,3.06,12.33,47.59359,-54.27349
2022-10-03 09:04:00+00:00,334.0,3.47,335.0,4.02,12.33,47.59359,-54.27349
2022-10-03 09:14:01+00:00,333.0,3.73,331.0,5.01,12.25,47.59359,-54.27349
2022-10-03 09:24:01+00:00,339.0,5.62,347.0,6.22,12.25,47.59359,-54.27349
2022-10-03 09:34:01+00:00,341.0,5.5,344.0,6.86,12.25,47.59359,-54.27349
2022-10-03 09:44:01+00:00,335.0,5.63,334.0,6.79,12.25,47.59359,-54.27349
2022-10-03 09:54:01+00:00,331.0,5.63,330.0,6.46,12.25,47.59359,-54.27349
2022-10-03 10:04:01+00:00,329.0,5.07,333.0,5.64,12.25,47.59359,-54.27349
2022-10-03 10:14:01+00:00,331.0,4.04,330.0,5.16,12.97,47.59359,-54.27349
2022-10-03 10:24:01+00:00,327.0,3.99,325.0,4.96,12.97,47.59359,-54.27349
2022-10-03 10:34:01+00:00,332.0,3.54,335.0,4.47,12.97,47.59359,-54.27349
2022-10-03 10:44:01+00:00,339.0,4.31,337.0,5.02,12.97,47.59359,-54.27349
2022-10-03 10:54:01+00:00,328.0,5.21,318.0,5.79,12.97,47.59359,-54.27349
2022-10-03 11:04:01+00:00,319.0,2.15,314.0,2.57,12.97,47.59359,-54.27349
2022-10-03 11:14:01+00:00,340.0,2.94,345.0,3.87,14.32,47.59359,-54.27349
2022-10-03 11:24:01+00:00,327.0,3.62,323.0,4.29,14.32,47.59359,-54.27349
2022-10-03 11:34:01+00:00,321.0,3.89,326.0,5.04,14.32,47.59359,-54.27349
2022-10-03 11:44:01+00:00,228.0,2.68,222.0,3.64,14.32,47.59359,-54.27349
2022-10-03 11:54:01+00:00,260.0,1.06,236.0,1.66,14.32,47.59359,-54.27349
2022-10-03 12:04:01+00:00,227.0,0.54,255.0,0.94,14.32,47.59359,-54.27349
2022-10-03 12:14:01+00:00,302.0,2.53,304.0,3.13,14.4,47.59359,-54.27349
2022-10-03 12:24:01+00:00,332.0,3.42,329.0,4.01,14.4,47.59359,-54.27349
2022-10-03 12:34:01+00:00,329.0,6.08,327.0,6.88,14.4,47.59359,-54.27349
2022-10-03 12:44:01+00:00,316.0,4.63,310.0,6.29,14.4,47.59359,-54.27349
2022-10-03 12:54:01+00:00,306.0,6.38,305.0,7.72,14.4,47.59359,-54.27349
2022-10-03 13:04:01+00:00,326.0,4.17,317.0,6.79,14.4,47.59359,-54.27349
2022-10-03 13:14:00+00:00,327.0,3.88,327.0,4.67,13.92,47.59359,-54.27349
2022-10-03 13:24:00+00:00,320.0,5.15,327.0,6.63,13.92,47.59359,-54.27349
2022-10-03 13:34:00+00:00,323.0,4.71,321.0,6.01,13.92,47.59359,-54.27349
2022-10-03 13:44:00+00:00,300.0,3.87,290.0,5.64,13.92,47.59359,-54.27349
2022-10-03 13:54:00+00:00,306.0,3.65,304.0,4.56,13.92,47.59359,-54.27349
2022-10-03 14:04:00+00:00,302.0,5.42,306.0,6.92,13.92,47.59359,-54.27349
2022-10-03 14:14:00+00:00,301.0,5.7,292.0,7.37,13.68,47.59359,-54.27349
2022-10-03 14:24:00+00:00,290.0,5.91,278.0,6.73,13.68,47.59359,-54.27349
2022-10-03 14:34:00+00:00,276.0,5.2,279.0,6.2,13.68,47.59359,-54.27349
2022-10-03 14:44:00+00:00,277.0,6.83,275.0,8.2,13.68,47.59359,-54.27349
2022-10-03 14:54:00+00:00,295.0,6.94,293.0,8.07,13.68,47.59359,-54.27349
2022-10-03 15:04:00+00:00,286.0,8.68,290.0,9.95,13.68,47.59359,-54.27349
2022-10-03 15:14:01+00:00,293.0,6.39,287.0,7.71,13.76,47.59359,-54.27349
2022-10-03 15:24:01+00:00,307.0,5.53,301.0,6.96,13.76,47.59359,-54.27349
2022-10-03 15:34:01+00:00,314.0,5.89,313.0,6.81,13.76,47.59359,-54.27349
2022-10-03 15:44:01+00:00,318.0,5.72,318.0,6.45,13.76,47.59359,-54.27349
2022-10-03 15:54:01+00:00,309.0,5.45,304.0,6.25,13.76,47.59359,-54.27349
2022-10-03 16:04:01+00:00,300.0,6.14,305.0,7.28,13.76,47.59359,-54.27349
2022-10-03 16:14:00+00:00,303.0,4.03,300.0,5.05,13.76,47.59359,-54.27349
2022-10-03 16:24:00+00:00,314.0,7.72,313.0,9.38,13.76,47.59359,-54.27349
2022-10-03 16:34:00+00:00,307.0,6.99,316.0,8.78,13.76,47.59359,-54.27349
2022-10-03 16:44:00+00:00,302.0,6.92,302.0,8.48,13.76,47.59359,-54.27349
2022-10-03 16:54:00+00:00,284.0,8.25,283.0,9.33,13.76,47.59359,-54.27349
2022-10-03 17:04:00+00:00,289.0,7.59,293.0,8.51,13.76,47.59359,-54.27349
2022-10-03 17:14:01+00:00,311.0,6.22,320.0,7.69,14.08,47.59359,-54.27349
2022-10-03 17:24:01+00:00,311.0,6.31,308.0,7.34,14.08,47.59359,-54.27349
2022-10-03 17:34:01+00:00,282.0,4.16,286.0,4.58,14.08,47.59359,-54.27349
2022-10-03 17:44:01+00:00,305.0,5.33,306.0,5.98,14.08,47.59359,-54.27349
2022-10-03 17:54:01+00:00,284.0,7.88,286.0,9.04,14.08,47.59359,-54.27349
2022-10-03 18:04:01+00:00,299.0,8.08,299.0,9.19,14.08,47.59359,-54.27349
2022-10-03 18:14:00+00:00,277.0,7.39,268.0,9.56,13.84,47.59359,-54.27349
2022-10-03 18:24:00+00:00,276.0,7.82,278.0,8.53,13.84,47.59359,-54.27349
2022-10-03 18:34:00+00:00,279.0,8.05,282.0,9.49,13.84,47.59359,-54.27349
2022-10-03 18:44:00+00:00,286.0,6.67,285.0,7.71,13.84,47.59359,-54.27349
2022-10-03 18:54:00+00:00,301.0,8.1,299.0,9.0,13.84,47.59359,-54.27349
2022-10-03 19:04:00+00:00,305.0,4.82,307.0,6.08,13.84,47.59359,-54.27349
2022-10-03 19:14:01+00:00,275.0,7.13,271.0,7.78,14.0,47.59359,-54.27349
2022-10-03 19:24:01+00:00,305.0,6.61,307.0,8.61,14.0,47.59359,-54.27349
2022-10-03 19:34:01+00:00,298.0,6.19,285.0,7.04,14.0,47.59359,-54.27349
2022-10-03 19:44:01+00:00,275.0,7.99,283.0,9.73,14.0,47.59359,-54.27349
2022-10-03 19:54:01+00:00,287.0,6.73,286.0,7.83,14.0,47.59359,-54.27349
2022-10-03 20:04:01+00:00,292.0,6.65,293.0,7.54,14.0,47.59359,-54.27349
2022-10-03 20:14:00+00:00,278.0,5.83,285.0,7.26,13.76,47.59359,-54.27349
2022-10-03 20:24:00+00:00,299.0,6.27,300.0,7.23,13.76,47.59359,-54.27349
2022-10-03 20:34:00+00:00,310.0,6.26,320.0,7.13,13.76,47.59359,-54.27349
2022-10-03 20:44:00+00:00,315.0,4.89,303.0,5.84,13.76,47.59359,-54.27349
2022-10-03 20:54:00+00:00,309.0,4.81,312.0,5.31,13.76,47.59359,-54.27349
2022-10-03 21:04:00+00:00,302.0,4.32,293.0,5.02,13.76,47.59359,-54.27349
2022-10-03 21:14:00+00:00,314.0,4.51,310.0,6.17,13.13,47.59359,-54.27349
2022-10-03 21:24:00+00:00,316.0,4.27,318.0,4.84,13.13,47.59359,-54.27349
2022-10-03 21:34:00+00:00,315.0,4.93,318.0,5.48,13.13,47.59359,-54.27349
2022-10-03 21:44:00+00:00,280.0,3.9,281.0,4.68,13.13,47.59359,-54.27349
2022-10-03 21:54:00+00:00,282.0,4.17,281.0,4.77,13.13,47.59359,-54.27349
2022-10-03 22:04:00+00:00,282.0,4.03,300.0,5.11,13.13,47.59359,-54.27349
2022-10-03 22:14:00+00:00,286.0,4.49,283.0,5.94,12.65,47.59359,-54.27349
2022-10-03 22:24:00+00:00,293.0,3.84,296.0,4.64,12.65,47.59359,-54.27349
2022-10-03 22:34:00+00:00,292.0,2.72,314.0,3.33,12.65,47.59359,-54.27349
2022-10-03 22:44:00+00:00,272.0,2.74,275.0,3.22,12.65,47.59359,-54.27349
2022-10-03 22:54:00+00:00,267.0,3.11,278.0,3.64,12.65,47.59359,-54.27349
2022-10-03 23:04:00+00:00,266.0,3.57,260.0,4.3,12.65,47.59359,-54.27349
2022-10-03 23:14:00+00:00,251.0,3.94,246.0,4.35,12.49,47.59359,-54.27349
2022-10-03 23:24:00+00:00,237.0,4.28,233.0,4.72,12.49,47.59359,-54.27349
2022-10-03 23:34:00+00:00,269.0,3.08,270.0,4.0,12.49,47.59359,-54.27349
2022-10-03 23:44:00+00:00,237.0,3.41,233.0,3.84,12.49,47.59359,-54.27349
2022-10-03 23:54:00+00:00,252.0,3.85,255.0,4.27,12.49,47.59359,-54.27349
